Location: Newark
(60.6561°N, 46.5772°E)
Time: 17:07:21
(UTC+00:00)

Tiros 1 despin weight - Pass Details

Date: 27 October 2019
Orbit: 594 x 642 km, 48.2° (Epoch: 20 November)

Event Time Altitude Azimuth Distance (km) Brightness Sun altitude
Rises 21:33:23 0° 240° (WSW) 2,923 - -41.2°
Reaches altitude 10° 21:36:19 10° 222° (SW) 2,023 - -41.1°
Maximum altitude 21:39:26 18° 180° (S) 1,576 - -40.9°
Drops below altitude 10° 21:42:33 10° 138° (SE) 2,033 - -40.8°
Sets 21:45:30 0° 120° (ESE) 2,945 - -40.7°
